Showing default

COSMOS 2530, 43751

Orbit data source: Space-Track

COSMOS 2530, 43751 is a payload satellite owned by VVKO VKS (CIS) in LEO that was launched on Fri, 30 Nov 2018 UTC via an ROKOT launch vehicle from the Plesetsk Missile And Space Complex (PKMTR). Payload-class satellites include a variety of spacecraft equipped with specific instruments for various scientific and technological missions. These include communications satellites like Starlink; space stations such as the ISS; scientific satellites like the Hubble; Earth observation satellites from companies like Planet Labs, Umbra, and HawkEye 360; GPS; miniature CubeSats for education and research; and military/defense satellites.

Loading next visibility...
Identifier
43751, 2018-097A
Orbit
LEO
Country
Flag of CISCIS
Related business
Manufacturer
Resehetnev ISS
Mission
Operational Defense Communications
Bus & Motor
STRELA-3M, Unknown motor
Mass
280 kg wet, 280 kg dry
Launch date (UTC)
2018-11-30 (7 years ago)
Launch vehicle
ROKOT
Launch site
Plesetsk Missile And Space Complex (PKMTR)
Object type
Payload
Rocket body
Debris
Shape & HBR
Cyl + 1 Ant, 3.5 m
Radar Cross Section
1.583 m², Large (>1 m²)

Expand to show TLE details & history
Last TLE update: 12 hours ago

TLE from 12 hours ago
0 COSMOS 2530
1 43751U 18097A   25258.63769647  .00000021  00000-0  81824-4 0  9995
2 43751  82.5171  32.6945 0018740 273.6422  86.2515 12.42869731308181
Epoch: 2025-09-15T15:18Z
TLE epoch observation values (Epoch: 2025-09-15T15:18:16.975Z)
Latitude
0.00005°
Longitude
168.28429°
Altitude
1,496.224 km
Speed
7.117 km/s
True Right ascension
02h 10m 46s
True Declination
0° 00' 00"
Sunlit
Object was in full shadow at epoch
Visualization orbit readout
Latitude
Unknown
Longitude
Unknown
Altitude
Unknown
Speed
Unknown
Apparent Right ascension
Unknown
Apparent Declination
Unknown
Sunlit
N/A
Visualization observer readout
Local Sidereal Time
20:19:04
Azimuth
Unknown
Elevation
Unknown
Doppler factor
Unknown
Orbital elements
Apogee altitude
1,506.56 km
Perigee altitude
1,477.064 km
Semi-major axis
7,869.949 km
Eccentricity
0.00187
Inclination
82.5171°
RAAN
32.6945°
Arg. of periapsis
273.6422°
True anomaly
86.46582°
Mean anomaly
86.2515°
Eccentric anomaly
86.35866°
Mean motion
3.10875 °/min
Orbital period
115.8 mins
BSTAR
0.000081824
Loading maneuver chart data...
Computing Atmospheric mass density...
Loading historical data...
Loading historical data...
Loading historical data...
Loading historical data...
Loading historical data...
Loading historical data...
Loading historical data...
Other satellites on launch #97 in the year 2018 (2018-11-30 UTC)

Documentation

Showing up to 5 results
|